Miscellaneous Local Product
Issued by NWS Hastings, NE

Home | Current Version | Previous Version | Graphics & Text | Print | Product List | Glossary On
Versions: 1 2 3 4 5 6 7 8 9 10 11 12 13 14 15 16 17 18 19 20 21 22 23 24 25 26 27 28 29 30 31 32 33 34 35 36 37 38 39 40 41 42 43 44 45 46 47 48 49 50
000
AXUS43 KGID 251502
MISGRI

GID CWA HOURLY WEATHER ROUNDUP
NATIONAL WEATHER SERVICE HASTINGS NE
1000 AM CDT SUN SEP 25 2016

NOTE: "FAIR" INDICATES FEW OR NO CLOUDS BELOW 12,000 FEET WITH NO
SIGNIFICANT WEATHER AND/OR OBSTRUCTIONS TO VISIBILITY.

...SOUTH CENTRAL NEBRASKA...

CITY           SKY/WX    TMP DP  RH WIND       PRES   REMARKS
GRAND ISLAND   SUNNY     61  44  53 NW24G30   30.22R
HASTINGS       SUNNY     61  44  53 NW20      30.23R
KEARNEY        SUNNY     61  43  51 NW17G23   30.25R
ORD            SUNNY     60  42  51 NW25G43   30.19R
YORK           PTSUNNY   59  48  67 NW18G24   30.19R
AURORA         SUNNY     61  46  56 NW16G24   30.20R
LEXINGTON      SUNNY     60  45  57 NW14      30.27R
HOLDREGE       SUNNY     59  42  53 NW14G23   30.27R
HEBRON         CLOUDY    59  47  63 NW10G16   30.21R

...NEBRASKA PANHANDLE...

CITY           SKY/WX    TMP DP  RH WIND       PRES   REMARKS
CHADRON        SUNNY     54  40  59 NW22G33   30.37R
ALLIANCE       SUNNY     52  40  63 NW21G29   30.37R
SCOTTSBLUFF    SUNNY     52  40  63 W10       30.43R
SIDNEY         LGT RAIN  54  40  59 N21G30    30.42R

...WESTERN AND NORTH CENTRAL NEBRASKA...

CITY           SKY/WX    TMP DP  RH WIND       PRES   REMARKS
VALENTINE      SUNNY     57  36  45 NW26G39   30.24R
AINSWORTH      SUNNY     57  43  59 NW21G33   30.23R
ONEILL         SUNNY     61  42  50 NW26G37   30.18R
BROKEN BOW     SUNNY     59  44  57 NW22G29   30.24R
IMPERIAL       SUNNY     58  37  45 NW26G36   30.36R
NORTH PLATTE   SUNNY     61  43  51 NW25G35   30.31R
MCCOOK         SUNNY     61  42  49 NW22G32   30.30R

...EASTERN NEBRASKA...

CITY           SKY/WX    TMP DP  RH WIND       PRES   REMARKS
NORFOLK        SUNNY     62  45  53 NW20G31   30.12S
SO SIOUX CITY  SUNNY     63  50  62 NW15G23   30.07S
TEKAMAH        MOSUNNY   62  48  60 W14       30.11R
COLUMBUS       SUNNY    N/A N/A N/A W16       30.16R
ALBION         SUNNY     60  45  56 NW22G30   30.17R
OMAHA EPPLEY   CLOUDY    60  48  64 W10       30.13R
OFFUTT AFB     CLOUDY    60  50  70 NW8       30.13R
MILLARD        CLOUDY    60  49  67 W10       30.14R
LINCOLN        CLOUDY    61  48  62 NW9       30.18R
NEBRASKA CITY  CLOUDY    60  44  55 NW8       30.16R
BEATRICE       CLOUDY    59  51  74 NW10      30.19R
FALLS CITY     CLOUDY    61  53  75 NW10      30.15R

...NORTHERN KANSAS...

CITY           SKY/WX    TMP DP  RH WIND       PRES   REMARKS
GOODLAND       SUNNY     58  39  49 N21G29    30.36R
HILL CITY      SUNNY     62  45  53 N15G22    30.30R
NORTON         SUNNY     61  37  41 NW17G24   30.29R
PHILLIPSBURG   SUNNY     63  45  51 NW14G21   30.27R
SMITH CENTER   SUNNY     61  45  55 NW16G22   30.26R
HAYS           SUNNY     63  41  45 N22G29    30.26R
CONCORDIA      PTSUNNY   60  50  69 NW10      30.23R
SALINA         PTSUNNY   61  51  70 NW12      30.24R
TOPEKA         LGT RAIN  59  55  87 N14G24    30.14R



USA.gov is the U.S. government's official web portal to all federal, state and local government web resources and services.